Weather Roundup
Issued by NWS

Home | Current Version | Previous Version | Graphics & Text | Print | Product List | Glossary Off
Versions: 1 2 3 4 5 6 7 8 9 10 11 12 13 14 15 16 17 18 19 20 21 22 23 24 25 26 27 28 29 30 31 32 33 34 35 36 37 38 39 40 41 42 43 44 45 46 47 48 49 50

000
NZUS93 KARX 201110
HRRWXR

CURRENT HOURLY OBSERVATIONS ACROSS
MUCH OF THE UPPER MISSISSIPPI VALLEY
NATIONAL WEATHER SERVICE LA CROSSE WI
500 AM CST MON FEB 20 2017


...SOUTHEAST MINNESOTA...


CITY           SKY/WX    TMP DP  RH WIND       PRES   REMARKS
ROCHESTER      CLOUDY    47  44  90 S12       29.89S
ROCHESTER/MAYO FAIR      51  46  82 SE12      29.88F
WINONA         MOCLDY    46  39  76 CALM      29.94R
AUSTIN         MOCLDY    48  43  81 SE7       29.88S
ALBERT LEA     MOCLDY    48  45  87 SE10G17   29.85S
DODGE CENTER   PTCLDY    46  43  87 SE12      29.87F
PRESTON        PTCLDY    48  43  82 S5        29.91F
OWATONNA       MOCLDY    52  45  76 SE16      29.84F
FARIBAULT      MOCLDY    54  46  76 SE10      29.84F
$$

...ELSEWHERE IN MINNESOTA...


CITY           SKY/WX    TMP DP  RH WIND       PRES   REMARKS
MINNEAPOLIS    CLOUDY    51  43  74 S13       29.84S
INTNL FALLS    CLOUDY    45  33  63 SE13G20   29.75R
DULUTH         CLOUDY    40  32  73 SE16      29.88R WCI  31
RED WING       CLOUDY    52  43  71 SE13      29.89S
REDWOOD FALLS  CLOUDY    50  45  83 SE17      29.75R
MANKATO          N/A     50  45  83 SE15      29.81S
WORTHINGTON    CLOUDY    50  48  93 S16       29.77R
FAIRMONT       MOCLDY    49  45  86 S14       29.80S
$$

...SOUTHWEST WISCONSIN...


CITY           SKY/WX    TMP DP  RH WIND       PRES   REMARKS
LA CROSSE      CLOUDY    54  44  69 SE12      29.95R
PRAIRIE DU CHI CLOUDY    50  43  76 E9        29.97F
BOSCOBEL       CLOUDY    47  39  74 VRB3      30.00S
LONE ROCK      CLOUDY    45  39  79 SE7       30.03S
PLATTEVILLE    PTCLDY    42  41  97 E13       30.01F
FORT MC COY    CLOUDY    50  42  73 E5        29.99R
CAMP DOUGLAS   PTCLDY    43  36  75 SE12      30.01S
MAUSTON-NEW LI MOSUNNY   42  36  76 SE6       30.02R
VIROQUA        FAIR      47  41  78 SE12      29.98R
WIS DELLS      PTCLDY    41  35  81 E5        30.04S
$$

...ELSEWHERE IN WISCONSIN...


CITY           SKY/WX    TMP DP  RH WIND       PRES   REMARKS
MILWAUKEE      PTCLDY    38  33  82 E3        30.12S
MADISON        PTCLDY    43  36  76 MISG      30.06R
GREEN BAY      CLOUDY    35  32  88 NE8       30.13R WCI  29
EAU CLAIRE     MOCLDY    47  37  68 E7        29.93R
BLACK RVR FLS  PTSUNNY   42  35  75 NE5       29.98R
MEDFORD        CLOUDY    38  31  73 SE8       30.01R WCI  33
WAUSAU         PTCLDY    37  29  72 E7        30.05S WCI  32
WIS RAPIDS     CLOUDY    41  33  73 E7        30.04F
MARSHFIELD     CLOUDY    40  31  70 E9        30.01S WCI  34
RICE LAKE      CLOUDY    45  35  68 SE12G20   29.93S
$$

...NORTHEAST IOWA...


CITY           SKY/WX    TMP DP  RH WIND       PRES   REMARKS
WATERLOO       CLOUDY    52  47  83 SE14      29.91S
DUBUQUE        CLOUDY    48  46  93 SE16      29.99S FOG
DECORAH        MOCLDY    48  45  87 SE13G21   29.93S
MASON CITY     MOCLDY    47  43  86 SE13      29.86S
CHARLES CITY   CLOUDY    48  48 100 SE14      29.90R
OELWEIN        CLOUDY    48  48 100 SE15      29.94S
$$

...ELSEWHERE IN IOWA...


CITY           SKY/WX    TMP DP  RH WIND       PRES   REMARKS
DES MOINES     CLOUDY    59  51  75 SE13      29.86S
IOWA CITY      MOCLDY    50  47  89 SE6       29.98S
FORT DODGE     CLOUDY    52  45  76 SE10      29.83F
MARSHALLTOWN   CLOUDY    51  48  89 SE12      29.89S
CEDAR RAPIDS   PTCLDY    52  50  93 SE9       29.94S
$$

...NORTHERN ILLINOIS...


CITY           SKY/WX    TMP DP  RH WIND       PRES   REMARKS
CHICAGO-OHARE  CLOUDY    46  42  86 SE8       30.10S
CHICAGO-MIDWAY CLOUDY    47  42  83 SE7       30.12R FOG
MOLINE         PTCLDY    49  45  86 SE6       30.01R FOG
ROCKFORD       CLOUDY    47  43  86 SE5       30.10R
PEORIA         FOG       48  48 100 SE10      30.07S VSB 1/2
$$

NOTE: "FAIR" INDICATES FEW OR NO CLOUDS BELOW 12,000 FEET WITH NO
SIGNIFICANT WEATHER AND/OR OBSTRUCTIONS TO VISIBILITY. WIND
SPEEDS ARE IN MILES-PER-HOUR.




USA.gov is the U.S. government's official web portal to all federal, state and local government web resources and services.